www.pogodaiklimat.ru
ПОГОДА в Коцеловице

Архив погоды в Коцеловице (Чехия)

Время
(UTC), дата
04 29.09
05 29.09
06 29.09
07 29.09
08 29.09
09 29.09
10 29.09
11 29.09
12 29.09
13 29.09
14 29.09
15 29.09
16 29.09
17 29.09
18 29.09
19 29.09
20 29.09
21 29.09
22 29.09
23 29.09
00 30.09
01 30.09
02 30.09
03 30.09
04 30.09
05 30.09
06 30.09
07 30.09
08 30.09
09 30.09
10 30.09
11 30.09
12 30.09
13 30.09
14 30.09
15 30.09
16 30.09
17 30.09
18 30.09
19 30.09
20 30.09
21 30.09
22 30.09
23 30.09
00 1.10
01 1.10
02 1.10
03 1.10
04 1.10
05 1.10
06 1.10
07 1.10
08 1.10
09 1.10
10 1.10
11 1.10
12 1.10
13 1.10
14 1.10
15 1.10
16 1.10
17 1.10
18 1.10
19 1.10
20 1.10
21 1.10
22 1.10
23 1.10
00 2.10
01 2.10
02 2.10
03 2.10
04 2.10
05 2.10
06 2.10
07 2.10
08 2.10
09 2.10
10 2.10
11 2.10
12 2.10
13 2.10
14 2.10
15 2.10
16 2.10
17 2.10
18 2.10
19 2.10
20 2.10
21 2.10
22 2.10
23 2.10
00 3.10
01 3.10
02 3.10
03 3.10
04 3.10
05 3.10
06 3.10
07 3.10
08 3.10
09 3.10
10 3.10
11 3.10
12 3.10
13 3.10
14 3.10
15 3.10
16 3.10
17 3.10
18 3.10
19 3.10
20 3.10
21 3.10
22 3.10
23 3.10
00 4.10
01 4.10
02 4.10
03 4.10
04 4.10
05 4.10
06 4.10
07 4.10
08 4.10
09 4.10
10 4.10
11 4.10
12 4.10
13 4.10
14 4.10
15 4.10
16 4.10
17 4.10
18 4.10
19 4.10
20 4.10
21 4.10
22 4.10
23 4.10
00 5.10
01 5.10
02 5.10
03 5.10
04 5.10
05 5.10
06 5.10
07 5.10
08 5.10
09 5.10
10 5.10
11 5.10
12 5.10
13 5.10
14 5.10
15 5.10
16 5.10
17 5.10
18 5.10
19 5.10
20 5.10
21 5.10
22 5.10
23 5.10
00 6.10
01 6.10
02 6.10
03 6.10
04 6.10
Ветер
(напр.,м/с)
Видим. Явления Облачность Т
(С)
Тd
(С)
f
(%)
Тe
(С)
Тes
(С)
Комфортность P
(гПа)
Po
(гПа)
Тmin
(С)
Tmax
(С)
R
(мм)
R24
(мм)
S
(см)
СЗ 2 17 км н/о +5.1 +4.5 96 +2 +2 1003.4 941.5
З 1 6000 м дымка н/о +3.9 +3.5 97 +2 +2 1003.9 941.7
С 1 2200 м туман на расстоянии 9/3 1500 м
[Sc Cs]
+4.2 +4.1 99 +3 +3 1003.9 941.8 +3.4 1.4
З 1 12 км 9/1 180 м
[Cu hum Ac lent Ci sp]
+5.7 +4.8 94 +4 +5 1003.7 941.9
1 30 км 8/1 300 м
[Cu med, cong Ac lent Ci sp]
+9.3 +6.2 81 +9 +11 1003.1 942.2
С 1 40 км 9/1 700 м
[Cu med, cong Ac lent Ci fib]
+10.0 +4.2 67 +10 +13 1003.6 942.7 1.0
1 55 км 6/3 900 м
[Cu med, cong Ac lent Ci sp]
+12.2 +4.7 60 +12 +17 1003.1 942.7
2 65 км 9/3 1140 м
[Cu med, cong Ac und Ci sp]
+12.3 +4.0 57 +12 +15 1003.1 942.7
С 1 >70 км осадки на расстоянии 9/3 1140 м
[Cu med, cong Ac As]
+12.1 +3.3 55 +12 +15 1003.1 942.7
1 65 км осадки на расстоянии 9/3 1140 м
[Cu med, cong Ac As]
+12.2 +3.2 54 +12 +14 1003.2 942.8
В 3 50 км осадки на расстоянии 9/1 1140 м
[Sc diur, vesp Ac As]
+11.7 +4.0 59 +10 +11 1003.4 942.9
В 2 22 км осадки на расстоянии 9/1 1140 м
[Sc diur, vesp Ac As]
+11.3 +4.3 62 +10 +11 1003.9 943.3 1.1
В 3 28 км осадки на расстоянии 9/1 1140 м
[Sc diur, vesp Ac As]
+10.9 +4.8 66 +9 +9 1004.6 943.9
В 2 30 км 9/1 1140 м
[Sc diur, vesp Ac As]
+10.2 +3.9 65 +9 +9 1005.0 944.1
СВ 1 30 км 9/9 1500 м
[Sc]
+9.6 +4.8 72 +9 +9 1005.4 944.4 +12.6
СВ 2 30 км 10/8 1500 м
[Sc Ac As]
+8.5 +5.3 80 +7 +7 1006.0 944.7
1 30 км 9/3 1500 м
[Sc Ac As]
+8.3 +4.9 79 +8 +8 1006.8 945.4
СВ 1 28 км н/о +7.8 +6.1 89 +7 +7 1007.5 946.0 1.1
СВ 2 28 км слаб. морось н/о +7.4 +6.2 92 +5 +5 1007.9 946.3
СЗ 1 14 км слаб. дождь н/о +7.3 +6.0 91 +6 +6 1008.2 946.5
С 2 9000 м слаб. дождь н/о +7.3 +5.8 90 +5 +5 1008.5 946.8 1
СЗ 1 6000 м дождь н/о +7.0 +6.4 96 +6 +6 1008.8 947.0
С 2 11 км слаб. дождь н/о +7.1 +6.4 95 +5 +5 1009.0 947.2
С 2 17 км слаб. дождь н/о +7.1 +6.3 95 +5 +5 1009.2 947.4 1.1
штиль 0 10 км в посл. час дождь н/о +7.2 +6.3 94 +6 +6 1009.5 947.7
В 1 18 км н/о +7.4 +6.5 94 +6 +6 1010.0 948.2
С 1 2100 м туман на расстоянии 9/9 60 м
[Sc]
+7.1 +6.7 97 +6 +6 1011.0 949.1 +6.9 4 4.2
1 2300 м туман на расстоянии {дождь} 10/10 60 м
[Sc]
+7.7 +7.3 97 +7 +7 1011.3 949.5
1 14 км 9/9 120 м
[Cu Sc]
+8.8 +7.1 89 +8 +8 1011.4 949.9
С 1 21 км {дождь} 9/9 300 м
[Cu Sc]
+9.7 +6.6 81 +9 +10 1012.0 950.6 1.1
1 23 км 9/9 360 м
[Cu Sc]
+10.5 +7.6 82 +10 +11 1012.2 951.0
1 24 км 9/9 480 м
[Cu Sc]
+11.2 +6.9 75 +11 +12 1012.3 951.2
С 1 25 км {дождь} 9/9 600 м
[Cu Sc]
+11.8 +6.5 70 +12 +13 1012.2 951.2 0.0
2 26 км 9/9 700 м
[Cu Sc Ci sp]
+12.2 +7.1 71 +11 +12 1012.4 951.5
1 27 км 6/5 700 м
[Cu Sc Ci sp]
+12.5 +7.2 70 +13 +15 1012.0 951.2
С 1 27 км 9/9 720 м
[Cu Sc Ci sp]
+12.7 +6.3 65 +13 +13 1012.2 951.4 1.1
ЮВ 2 30 км 9/9 720 м
[Sc diur, vesp]
+12.2 +7.7 74 +11 +11 1012.7 951.8
1 35 км 9/8 720 м
[Sc diur, vesp Ac As]
+11.2 +8.1 81 +11 +11 1013.3 952.2
С 1 30 км 9/9 1500 м
[Sc]
+11.2 +7.1 76 +11 +11 1013.7 952.5 +13.3 0.0
1 25 км 9/6 1500 м
[Sc Ac As]
+9.8 +7.6 86 +9 +9 1013.9 952.4
С 1 18 км 9/1 1500 м
[Sc Ac As]
+9.6 +8.0 90 +9 +9 1013.8 952.3
СВ 1 17 км н/о +9.1 +7.9 92 +8 +8 1013.7 952.1 1.2
СЗ 1 6000 м дымка н/о +8.2 +7.8 97 +7 +7 1014.1 952.3
В 1 400 м туман н/о +7.6 +7.2 97 +7 +7 1014.6 952.6
СЗ 2 900 м туман н/о +6.5 +6.2 98 +4 +4 1015.4 953.1
1 4400 м в посл. час туман н/о +6.4 +6.1 98 +5 +5 1015.4 953.1
ЮВ 1 6000 м дымка н/о +6.5 +6.0 97 +5 +5 1015.0 952.7
Ю 1 7000 м дымка н/о +7.2 +6.9 98 +6 +6 1014.7 952.6 1.1
1 14 км н/о +7.5 +6.6 94 +6 +6 1014.4 952.4
1 1900 м дымка н/о +7.0 +6.3 95 +6 +6 1014.1 952.0
ЮВ 2 2700 м дымка 9/9 1200 м
[Sc]
+7.4 +6.8 96 +5 +5 1014.1 952.1 +5.8 0.0
штиль 0 8000 м дымка 9/6 400 м
[Cu Sc Ac lent Cs]
+8.1 +7.3 95 +7 +8 1014.2 952.3
Ю 3 30 км осадки на расстоянии 9/1 420 м
[Cu Sc Ac As Cs]
+10.9 +7.8 81 +9 +10 1012.9 951.7
ЮЗ 4 40 км осадки на расстоянии 9/1 570 м
[Cu hum Ac As Cs]
+11.8 +6.9 72 +10 +12 1012.2 951.2 1.1
ЮЗ 5 45 км осадки на расстоянии 9/1 660 м
[Cu hum Ac As]
+11.5 +6.2 70 +9 +10 1011.8 950.8
ЮЗ 6 45 км осадки на расстоянии 9/1 800 м
[Cu hum Ac As]
+11.5 +4.5 62 +9 +10 1011.7 950.7
З 6
{12}
35 км осадки на расстоянии 9/8 840 м
[Sc As op]
+11.5 +5.2 65 +9 +9 1011.1 950.1
ЮЗ 7-13
{12}
11 км слаб. дождь 10/9 750 м
[Sc As op]
+10.1 +7.2 82 +6 +6 1011.3 950.0
ЮЗ 5
{11}
14 км слаб. дождь 10/6 270 м
[Sc As op]
+9.4 +7.7 89 +6 +6 1011.3 949.9
З 5
{13}
16 км слаб. дождь 10/10 240 м
[Sc]
+9.6 +7.5 87 +6 +6 1011.4 950.0 1.1
З 6
{13}
15 км в посл. час дождь 10/10 210 м
[Sc]
+9.8 +7.9 88 +6 +6 1011.3 950.0
З 7-12
{13}
14 км осадки на расстоянии 9/9 240 м
[Cu med, cong]
+10.1 +7.9 86 +6 +6 1011.4 950.1
З 7
{14}
20 км в посл. час ливневой дождь 8/6 420 м
[Cu Sc Ac lent]
+10.2 +8.1 87 +6 +6 1011.8 950.5 +12.2 2
З 6 18 км 9/9 400 м
[Cu Sc]
+10.3 +8.2 87 +7 +7 1012.6 951.3
З 5
{11}
16 км слаб. ливневой дождь 10/10 420 м
[Cb calv]
+10.3 +8.6 89 +7 +7 1013.0 951.7
З 7
{11}
35 км слаб. ливневой дождь н/о +10.4 +8.2 86 +7 +7 1013.7 952.4 1.1
З 6
{11}
35 км в посл. час осадки н/о +9.8 +7.5 86 +6 +6 1014.8 953.3
З 5
{12}
35 км н/о +9.1 +7.1 87 +6 +6 1016.1 954.3
З 5
{12}
35 км н/о +8.8 +7.3 90 +5 +5 1017.2 955.3 0.2
З 3 35 км н/о +8.1 +7.0 93 +5 +5 1018.3 956.2
З 3 35 км н/о +8.5 +7.2 92 +6 +6 1018.5 956.5
З 2 35 км н/о +8.9 +7.4 90 +7 +7 1018.7 956.7 1.1
1 35 км н/о +8.9 +7.4 90 +8 +8 1018.7 956.7
З 3 35 км н/о +9.5 +7.8 89 +7 +7 1018.7 956.9
ЮЗ 2 28 км 9/3 270 м
[Frnb Ac As]
+9.2 +8.0 92 +7 +7 1018.9 957.0 +7.9 0.2 1.9
З 4 12 км слаб. дождь 9/8 240 м
[Sc As op]
+10.1 +9.0 93 +7 +7 1019.1 957.4
ЮЗ 2 15 км в посл. час дождь 10/10 210 м
[Sc]
+10.8 +9.9 94 +9 +9 1018.6 957.1
З 3 8000 м в посл. час дождь 10/10 210 м
[Sc]
+11.7 +10.1 90 +10 +10 1018.1 956.8 1.1
З 6 40 км 10/9 270 м
[Sc As op]
+12.4 +9.8 84 +10 +10 1017.8 956.7
З 7
{11}
30 км осадки на расстоянии 10/8 480 м
[Sc As op]
+12.7 +9.3 80 +10 +10 1017.4 956.3
З 6-11
{11}
30 км осадки на расстоянии {дождь} 10/10 420 м
[Sc]
+12.5 +9.3 81 +10 +10 1017.2 956.1 0.5
З 6
{12}
40 км осадки на расстоянии 10/4 480 м
[Sc Ac As]
+12.4 +8.8 79 +10 +10 1016.7 955.6
З 6
{11}
45 км 10/5 450 м
[Sc Ac As]
+11.6 +8.7 82 +9 +9 1016.8 955.5
З 7
{12}
13 км слаб. морось 10/9 360 м
[Sc As trans]
+11.5 +9.2 86 +8 +8 1016.8 955.5 1.1
З 3 18 км в посл. час морось 10/9 150 м
[Sc Ac As]
+11.1 +9.5 90 +9 +9 1017.0 955.6
З 5 45 км 9/9 240 м
[Sc]
+10.9 +9.4 90 +8 +8 1017.4 956.0
З 3
{12}
45 км {морось} 9/8 330 м
[Sc Ac As Cs]
+10.5 +9.2 92 +8 +8 1018.1 956.5 +13.0 0.5
З 2 45 км 9/4 270 м
[Sc Ac lent Cs]
+10.0 +8.9 93 +8 +8 1018.9 957.2
З 3 40 км 10/10 360 м
[Sc]
+10.2 +8.9 92 +8 +8 1019.5 957.8
З 5 25 км слаб. ливневой дождь н/о +10.1 +9.0 93 +7 +7 1020.0 958.2 1.1
З 4 29 км в посл. час дождь н/о +9.6 +8.7 94 +7 +7 1020.6 958.7
З 4 28 км слаб. ливневой дождь н/о +9.5 +8.4 93 +7 +7 1020.8 958.9
З 5 35 км н/о +9.2 +7.9 92 +6 +6 1021.2 959.2 0.1
З 5 30 км н/о +8.9 +7.1 88 +5 +5 1021.5 959.4
З 5 29 км н/о +8.2 +6.8 91 +4 +4 1022.3 960.0
З 5 24 км слаб. морось н/о +8.1 +6.9 92 +4 +4 1022.7 960.3 1.1
З 5 30 км в посл. час осадки н/о +8.3 +6.8 90 +5 +5 1023.0 960.6
З 6 30 км н/о +8.5 +6.7 88 +4 +4 1023.0 960.7
З 8
{11}
45 км 9/9 300 м
[Cu Sc Ac lent]
+9.0 +6.6 85 +5 +5 1023.1 960.9 +7.6 0.1 0.6
З 7
{12}
40 км 9/9 400 м
[Cu Sc]
+9.4 +6.7 83 +5 +5 1023.7 961.5
З 7
{12}
28 км осадки на расстоянии 9/9 480 м
[Cu Sc]
+10.1 +6.7 79 +6 +7 1023.9 961.9
З 8-13
{13}
3800 м слаб. ливневой дождь 8/8 480 м
[Cb calv]
+10.1 +7.7 85 +6 +6 1024.1 962.1 1.1
З 6-12
{12}
17 км в посл. час ливневой дождь 9/9 500 м
[Cb calv]
+10.9 +6.4 74 +8 +8 1024.3 962.4
З 8-13
{13}
30 км в посл. час ливневой дождь 9/9 630 м
[Cu Sc]
+11.5 +7.1 74 +8 +8 1023.9 962.2
З 7
{13}
26 км в посл. час ливневой дождь 9/9 600 м
[Cu Sc]
+10.9 +7.1 77 +8 +8 1024.5 962.6 0.1
З 5-10
{13}
40 км слаб. ливневой дождь 9/9 630 м
[Cu Sc]
+11.1 +7.2 77 +8 +9 1024.3 962.5
З 6
{12}
60 км в посл. час ливневой дождь 8/8 700 м
[Cu Sc]
+11.9 +6.8 71 +9 +10 1024.0 962.3
З 6
{13}
70 км {ливн. дождь} 9/9 800 м
[Cu Sc]
+11.4 +6.5 72 +9 +9 1024.2 962.4 1.1
З 5 70 км 9/9 800 м
[Cu Sc]
+11.0 +7.1 77 +8 +8 1024.4 962.5
З 5 70 км 9/9 840 м
[Sc diur, vesp]
+10.7 +7.1 78 +8 +8 1024.4 962.5
З 4
{13}
60 км {ливн. дождь} 10/10 930 м
[Sc diur, vesp]
+10.3 +7.2 81 +8 +8 1024.7 962.7 +12.5 0.2
З 4 60 км 10/10 1500 м
[Sc]
+10.3 +7.0 80 +8 +8 1024.6 962.6
З 3 60 км 9/9 1500 м
[Sc]
+10.0 +6.9 81 +8 +8 1024.8 962.7 1.1
З 4 35 км н/о +9.8 +7.0 83 +7 +7 1024.7 962.6 1.1
З 5 35 км н/о +9.7 +6.6 81 +7 +7 1024.6 962.4
З 4 35 км н/о +9.3 +6.7 84 +6 +6 1024.4 962.2
З 3 35 км н/о +9.0 +6.6 85 +7 +7 1024.4 962.1
2 35 км н/о +8.7 +6.4 85 +7 +7 1024.4 962.0
З 4 35 км н/о +8.5 +6.4 87 +5 +5 1023.9 961.5
З 5 35 км н/о +8.5 +6.3 86 +5 +5 1023.8 961.4 1.1
З 4 35 км н/о +8.4 +6.4 87 +5 +5 1023.7 961.3
З 4 30 км н/о +8.3 +6.3 87 +5 +5 1023.7 961.3
СЗ 3 60 км 9/9 360 м
[Cu Sc Ac und]
+8.7 +6.4 85 +6 +6 1023.9 961.6 +8.3 0.2
З 4 70 км 9/1 1500 м
[Sc Ac und Ci fib]
+9.4 +6.7 83 +7 +7 1024.1 961.9
З 4 70 км осадки на расстоянии 9/1 400 м
[Cu Sc Ac As Ci fib]
+10.0 +6.9 81 +7 +8 1024.2 962.1 1.1
З 3 70 км осадки на расстоянии 8/1 400 м
[Cu med, cong Ac As Ci fib]
+10.8 +7.5 80 +9 +11 1024.3 962.4 1.1
З 3 70 км 6/1 1500 м
[Sc diur, vesp Ac trans Ci fib]
+12.6 +7.9 73 +11 +15 1024.1 962.6
СЗ 3 70 км 6/3 1260 м
[Cu med, cong Ac trans Ci fib]
+14.1 +7.8 66 +13 +16 1023.8 962.6
З 3 70 км 6/4 960 м
[Cu med, cong Ac trans Ci fib]
+14.8 +7.2 60 +14 +17 1023.4 962.4
З 3 70 км 8/6 1200 м
[Cu med, cong Ac trans Ci fib]
+14.4 +5.7 56 +14 +15 1023.2 962.1
З 3 70 км 4/3 1200 м
[Sc diur, vesp Ac trans Ci fib]
+15.3 +6.1 54 +15 +16 1023.0 962.1
З 2 70 км 1/1 1080 м
[Sc diur, vesp Ci fib]
+14.9 +6.2 56 +15 +16 1023.0 962.0 1.1
1 70 км 1/0
[Ac lent Ci fib]
+14.9 +6.3 56 +16 +16 1022.9 961.9
В 1 70 км 1/0
[Ci fib]
+12.6 +7.2 70 +13 +13 1023.4 961.9
ЮЗ 1 70 км ясно +10.7 +6.7 76 +10 +10 1023.9 962.0 +15.9
СЗ 1 70 км 1/0
[Ci fib]
+8.9 +6.9 87 +8 +8 1024.5 962.2
С 1 60 км 1/0
[Ci fib]
+8.4 +6.9 90 +8 +8 1025.0 962.5
С 1 28 км н/о +7.4 +6.4 93 +6 +6 1025.2 962.5 1.2
З 1 24 км н/о +6.6 +5.9 95 +5 +5 1025.8 962.9
СВ 1 17 км н/о +5.9 +5.4 97 +5 +5 1026.0 962.9
З 1 18 км н/о +5.9 +5.2 95 +5 +5 1025.9 962.8
В 1 400 м туман н/о +4.9 +4.6 98 +3 +3 1025.3 962.0
1 700 м туман н/о +5.3 +5.1 99 +4 +4 1024.8 961.7
СВ 2 4300 м в посл. час туман н/о +4.0 +3.8 99 +1 +1 1025.1 961.6 1.1
В 1 200 м туман н/о +4.2 +3.8 97 +3 +3 1024.7 961.3
СВ 2 <100 м туман н/о +3.4 +3.1 98 0 0 1025.3 961.7
ЮВ 2 200 м туман ясно +3.5 +3.4 99 0 0 1025.0 961.4 +2.3
СВ 1 200 м туман 6/0
[Ci]
+4.7 +4.6 99 +3 +4 1024.8 961.5
СВ 2 5000 м туман на расстоянии 9/0
[Ac lent Cs]
+6.8 +6.2 96 +4 +6 1024.8 962.0
ЮВ 2 8000 м туман на расстоянии 9/0
[Ac lent Cs]
+9.5 +8.0 90 +8 +11 1024.2 962.0 1.0
2 60 км 9/0
[Ac lent Cs]
+11.9 +7.5 74 +11 +16 1023.3 961.7
1 65 км 9/0
[Cs]
+14.7 +7.3 61 +15 +22 1022.7 961.7
ЮВ 2 60 км {туман} 9/0
[Cs]
+16.0 +8.9 63 +16 +21 1021.6 961.0
1 70 км 9/0
[Ac lent Cs]
+16.7 +11.2 70 +18 +21 1020.9 960.5
нст 1 70 км 9/0
[Ac lent Cs]
+17.2 +10.8 66 +18 +21 1020.8 960.5 1.1
штиль 0 70 км осадки на расстоянии 9/0
[As op Cs]
+16.9 +11.0 68 +17 +18 1020.8 960.4 1.1
1 70 км 9/0
[As op Cs]
+16.4 +10.7 69 +17 +17 1020.9 960.4
Ю 1 70 км 8/0
[Ci sp]
+14.9 +10.8 76 +15 +15 1021.5 960.7
З 1 60 км 4/0
[Ci fib]
+13.3 +10.9 85 +13 +13 1022.0 960.8 +17.5
1 55 км 4/0
[Ci fib]
+12.2 +10.9 92 +12 +12 1022.6 961.2
1 55 км 3/0
[Ci fib]
+10.7 +10.0 95 +10 +10 1023.3 961.5
В 2 400 м туман н/о +9.5 +9.1 97 +8 +8 1024.2 962.1 1.2
СВ 2 500 м туман н/о +8.9 +8.7 99 +7 +7 1024.6 962.3
С 1 1600 м дымка н/о +8.6 +8.4 99 +8 +8 1025.0 962.6
В 1 900 м туман н/о +7.8 +7.4 97 +7 +7 1025.7 963.1
1 12 км в посл. час туман н/о +8.3 +6.9 91 +7 +7 1025.7 963.2
З 3 35 км н/о +10.9 +8.6 86 +9 +9 1025.3 963.4
З 2 35 км н/о +10.2 +8.3 88 +9 +9 1025.9 963.8 1.1
ЮЗ 2 35 км н/о +11.8 +8.5 80 +11 +11 1026.2 964.4
Местоположение метеостанции Коцеловице (Чехия): широта 49.47 долгота 13.83 высота над уровнем моря 522 м.
В архиве по умолчанию представлена погода в Коцеловице за последнюю неделю. Архивные данные за месяц целиком и за предыдущие месяцы, начиная с января 2011 года, Вы можете получить, выбрав интересующий диапазон дат из раскрывающегося списка и нажав кнопку "Найти!".
*Определитесь, кто Вы:
Внимание! Время в таблицах - всемирное. Для получения местного времени необходимо прибавить поправку, которая равна 1 ч.
Смотрите также архив погоды в соседних городах и на ближайших метеорологических станциях:
Партнеры нашего сайта:      
Пояснения к столбцам:
  • Ветер - указаны скорость ветра в м/с - средняя за 10 мин, порывы в срок и между сроками (в фигурных скобках) и направление, откуда дует ветер: С - северный,
  • СВ - северо-восточный, В - восточный, ЮВ - юго-восточный, Ю - южный, ЮЗ - юго-западный, З - западный, СЗ - северо-западный.
  • Видимость - горизонтальная дальность видимости в метрах или километрах. При видимости от 1 до 10 км при отсутствии осадков обычно наблюдается дымка, при ухудшении видимости до 1 км и менее - туман. В сухую погоду видимость может ухудшаться дымом, пылью или мглою.
  • Явления - указаны атмосферные явления, наблюдавшиеся в срок или в последний час перед сроком; фигурными скобками обозначены явления, наблюдавшиеся между сроками (за 1-3 часа до срока); квадратными скобками обозначены град или гололедные отложения с указанием их диаметра в мм.
  • Облачность - указаны через наклонную черту общая и нижняя облачность в баллах и высота нижней границы облаков в метрах; квадратными скобками обозначены формы облаков: Ci - перистые, Cs - перисто-слоистые, Cc - перисто-кучевые, Ac - высококучевые, As - высокослоистые, Sc - слоисто-кучевые, Ns - слоисто-дождевые, Cu - кучевые, Cb - кучево-дождевые. Подробнее классификацию облаков см. в Атласе облаков (PDF).
  • T - Температура воздуха - температура, измеренная на высоте 2 м над землей.
  • Td - Температура точки росы - температура, при понижении до которой содержащийся в воздухе водяной пар достигнет насыщения.
  • f - Относительная влажность воздуха - влажноcть воздуха, измеренная на высоте 2 м над землей.
  • Te - Эффективная температура - температура, которую ощущает одетый по сезону человек в тени. Характеристика душности погоды. При расчете учитывается влияние влажности воздуха и скорости ветра на теплоощущения человека.
  • Tes - Эффективная температура на солнце - температура, которую ощущает человек, с поправкой на солнечный нагрев. Характеристика знойности погоды. Зависит от высоты солнца над горизонтом, облачности и скорости ветра. Ночью, в пасмурную погоду, а также при ветре 12 м/с и более поправка равна нулю.
  • P - Атмосферное давление - приведенное к уровню моря атмосферное давление.
  • Po - Атмосферное давление - измеренное на уровне метеостанции атмосферное давление.
  • Tmin - Минимальная температура - минимум температуры воздуха на высоте 2 м над землей.
  • Tmax - Максимальная температура - максимум температуры воздуха на высоте 2 м над землей.
  • R - Количество осадков - Количество выпавших осадков за период времени, мм. При наведении курсора мыши на число - период времени, за который выпало указанное количество осадков.
  • R24 - Количество осадков - Количество выпавших осадков за 24 часа, мм.
  • S - Снежный покров - Высота снежного покрова, см. При наведении курсора мыши на число - состояние снежного покрова и степень покрытия местности в баллах.